Weather History for Plattsburgh, NY

Change the Weather History Date:

Monday, October 17, 2011

  Actual Average Record
Temperature  
Mean Temperature 49 °F 47 °F  
Max Temperature 57 °F 57 °F 75 °F (1951)
Min Temperature 41 °F 37 °F 24 °F (1978)
Degree Days  
Heating Degree Days 16 18  
Month to date heating degree days 184 259  
Since 1 July heating degree days 322 494  
Cooling Degree Days 0 0  
Month to date cooling degree days 0 0  
Year to date cooling degree days 444 345  
Moisture  
Dew Point 39 °F    
Average Humidity 68    
Maximum Humidity 89    
Minimum Humidity 47    
Precipitation  
Precipitation 0.05 in - 2.25 in (1977)
Month to date precipitation 2.62  
Year to date precipitation 35.44  
Sea Level Pressure  
Sea Level Pressure 29.58 in    
Wind  
Wind Speed 4 mph (SSW)    
Max Wind Speed 15 mph    
Max Gust Speed 26 mph    
Visibility 10 miles    
Events Rain    
T = Trace of Precipitation, MM = Missing Value Source: NWS Daily Summary

Daily Weather History Graph

Daily Weather History Graph

Search for Another Location

Airport:

Trip Planner

Search our weather history database for the weather conditions in past years. The results will help you decide how hot, cold, wet, or windy it might be!

Date:

Astronomy

Oct. 17, 2011 Rise Set
Actual Time 7:11 AM EDT 6:06 PM EDT
Civil Twilight 6:41 AM EDT 6:35 PM EDT
Nautical Twilight 6:08 AM EDT 7:09 PM EDT
Astronomical Twilight 5:34 AM EDT 7:43 PM EDT
Moon 9:34 PM EDT (10/17) 12:25 PM EDT (10/17)
Length of Visible Light 11h 54m
Length of Day
10h 55m
Waning Gibbous, 74% of the Moon is Illuminated
Oct 17
Waning Gibbous
Oct 19
Last Quarter
Oct 26
New
Nov 2
First Quarter
Nov 10
Full

Hourly Weather History & Observations

Time (EDT) Temp. Windchill Dew Point Humidity Pressure Visibility Wind Dir Wind Speed Gust Speed Precip Events Conditions
12:53 AM 46.0 °F 44.8 °F 42.1 °F 86% 29.52 in 5.0 mi Variable 3.5 mph - 0.13 in Rain Rain
1:53 AM 46.0 °F 44.8 °F 43.0 °F 89% 29.52 in 10.0 mi SW 3.5 mph - 0.00 in   Mostly Cloudy
2:53 AM 43.0 °F 40.3 °F 39.9 °F 89% 29.53 in 10.0 mi Variable 4.6 mph - N/A   Clear
3:53 AM 45.0 °F 41.8 °F 39.9 °F 82% 29.52 in 10.0 mi SSE 5.8 mph - N/A   Clear
4:53 AM 45.0 °F - 39.0 °F 80% 29.54 in 10.0 mi Calm Calm - N/A   Clear
6:53 AM 45.0 °F 43.5 °F 37.9 °F 76% 29.57 in 10.0 mi SSW 3.5 mph - N/A   Mostly Cloudy
7:53 AM 44.1 °F 42.5 °F 37.9 °F 79% 29.58 in 10.0 mi SSW 3.5 mph - N/A   Clear
8:53 AM 48.0 °F - 39.0 °F 71% 29.60 in 10.0 mi South 4.6 mph - N/A   Scattered Clouds
9:53 AM 53.1 °F - 37.9 °F 57% 29.58 in 10.0 mi Variable 6.9 mph - N/A   Scattered Clouds
11:53 AM 55.0 °F - 36.0 °F 49% 29.57 in 10.0 mi Variable 5.8 mph - N/A   Overcast
12:53 PM 54.0 °F - 36.0 °F 51% 29.56 in 10.0 mi SW 6.9 mph - N/A   Overcast
1:53 PM 48.9 °F - 39.0 °F 69% 29.56 in 10.0 mi Variable 5.8 mph - 0.02 in   Overcast
3:53 PM 50.0 °F - 39.0 °F 66% 29.58 in 10.0 mi Calm Calm - 0.00 in Rain Light Rain
4:53 PM 51.1 °F - 37.0 °F 59% 29.59 in 10.0 mi Variable 4.6 mph - 0.01 in   Overcast
5:53 PM 52.0 °F - 36.0 °F 54% 29.60 in 10.0 mi Variable 3.5 mph - 0.00 in Rain Light Rain
6:53 PM 48.9 °F - 39.9 °F 71% 29.64 in 10.0 mi Variable 3.5 mph - 0.00 in Rain Light Rain
8:53 PM 48.0 °F - 39.9 °F 74% 29.65 in 10.0 mi South 4.6 mph - 0.00 in   Overcast
9:53 PM 48.0 °F - 41.0 °F 77% 29.65 in 10.0 mi South 3.5 mph - N/A   Overcast
10:53 PM 48.0 °F - 42.1 °F 80% 29.66 in 10.0 mi South 4.6 mph - 0.00 in Rain Light Rain
11:53 PM 46.9 °F - 43.0 °F 86% 29.66 in 10.0 mi South 4.6 mph - 0.01 in Rain Light Rain